This is the latest recevied weather packets stored in our database for station/object KI4NG. If no packets are shown the sender has not sent any weather packets the latest 1 day(s).
| Time | Temp. | Humidity | Pressure | Rain* | Wind** | Luminosity | Snow |
|---|---|---|---|---|---|---|---|
| 1836274803 | 20° C | 85% | 1020.3 hPa | 0 mm | 0 m/s | 0 W/m² | - |
| 1836274501 | 20° C | 86% | 1020.7 hPa | 0 mm | 0 m/s | 0 W/m² | - |
| 1836274354 | 20° C | 86% | 1020.4 hPa | 0 mm | 0 m/s | 0 W/m² | - |
| 1836274198 | 20° C | 87% | 1020.4 hPa | 0 mm | 0 m/s | 0 W/m² | - |
| 1836273892 | 20° C | 86% | 1020.3 hPa | 0 mm | 0 m/s | 0 W/m² | - |
| 1778052278 | 17.78° C | 79% | 1008.6 hPa | 0 mm | 4.02 m/s, 237° | 0 W/m² | - |
| 1778051976 | 18.33° C | 77% | 1008.6 hPa | 0 mm | 1.79 m/s, 193° | 0 W/m² | - |
| 1778051673 | 18.33° C | 77% | 1008.8 hPa | 0 mm | 2.68 m/s, 179° | 0 W/m² | - |
| 1778051370 | 17.78° C | 79% | 1008.8 hPa | 0 mm | 4.47 m/s, 181° | 0 W/m² | - |
| 1778051067 | 17.78° C | 79% | 1009 hPa | 0 mm | 3.13 m/s, 261° | 0 W/m² | - |
| 1778050764 | 17.78° C | 78% | 1008.9 hPa | 0 mm | 2.24 m/s, 179° | 0 W/m² | - |
| 1778050462 | 17.78° C | 79% | 1009.1 hPa | 0 mm | 2.24 m/s, 219° | 0 W/m² | - |
| 1778050158 | 17.78° C | 80% | 1009.3 hPa | 0 mm | 1.79 m/s, 190° | 0 W/m² | - |
| 1778049854 | 17.78° C | 77% | 1009.3 hPa | 0 mm | 4.47 m/s, 131° | 0 W/m² | - |
| 1778049551 | 17.78° C | 80% | 1009.4 hPa | 0 mm | 2.24 m/s, 184° | 0 W/m² | - |
| 1778049248 | 17.22° C | 81% | 1009 hPa | 0 mm | 2.24 m/s, 173° | 0 W/m² | - |
| 1778048946 | 17.22° C | 82% | 1009.4 hPa | 0 mm | 1.79 m/s, 181° | 0 W/m² | - |
| 1778048644 | 17.22° C | 81% | 1009.5 hPa | 0 mm | 3.13 m/s, 188° | 0 W/m² | - |
| 1778048340 | 17.22° C | 81% | 1009.5 hPa | 0 mm | 3.13 m/s, 187° | 0 W/m² | - |
| 1778048037 | 16.67° C | 82% | 1009.6 hPa | 0 mm | 4.47 m/s, 203° | 0 W/m² | - |
| 1778047735 | 16.67° C | 83% | 1009.7 hPa | 0 mm | 0.89 m/s, 167° | 0 W/m² | - |
| 1778047433 | 16.67° C | 85% | 1009.6 hPa | 0 mm | 0.89 m/s, 253° | 0 W/m² | - |
| 1778047129 | 16.11° C | 88% | 1009.7 hPa | 0 mm | 0.89 m/s, 154° | 0 W/m² | - |
| 1778046826 | 15.56° C | 87% | 1009.8 hPa | 0 mm | 2.68 m/s, 158° | 0 W/m² | - |
| 1778046523 | 16.11° C | 88% | 1009.9 hPa | 0 mm | 1.79 m/s, 163° | 0 W/m² | - |
* Rain latest hour (hover to see other rain measurements)
** Current wind speed in m/s (hover to see current wind gust speed)